Weather Service Report


037 
ASUS41 KAKQ 241215
RWRAKQ

REGIONAL WEATHER ROUNDUP
NATIONAL WEATHER SERVICE WAKEFIELD VA
800 AM EDT MON APR 24 2017

Note: "fair" indicates few or no clouds below 12,000 feet with no
significant weather and/or obstructions to visibility. * = Denotes
station may not report precipitation (e.g., rain,snow,etc.),
thunder or fog.

VAZ042-051-052>054-056-241300-
NORTHERN VIRGINIA
  
CITY           SKY/WX    TMP DP  RH WIND       PRES   REMARKS
WASH NATIONAL  CLOUDY    54  47  77 NE12      30.10R                  
DULLES         CLOUDY    52  47  83 NE9       30.08F                  
FORT BELVOIR   LGT RAIN  53  47  80 N3        30.08S                  
QUANTICO       CLOUDY    55  46  71 NE14      30.08S                  
FREDERICKSBRG* CLOUDY    50  45  82 NE8       30.05F                  
STAFFORD*      LGT RAIN  50  48  92 N7        30.10F                  
WARRENTON      LGT RAIN  50  46  87 NE5       30.07F                  
CULPEPER*      DRIZZLE   49  49  98 N6        30.09S                  
MANASSAS*      LGT RAIN  51  49  92 NE7       30.09S                  
LEESBURG*      CLOUDY    52  52 100 NE6       30.10S                  
WINCHESTER     DRIZZLE   46  45  93 CALM      30.08F                  
FRONT ROYAL*   CLOUDY    48  48 100 CALM      30.08R                  
LURAY*         LGT RAIN  48  48 100 N7        30.07R                  
$$

VAZ048-049-060>072-079>083-241300-
CENTRAL AND SOUTH CENTRAL VIRGINIA
  
CITY           SKY/WX    TMP DP  RH WIND       PRES   REMARKS
RICHMOND       DRZL/FOG  51  50  96 NE12      30.00R VSB 1            
CHESTERFIELD*  CLOUDY    52  34  50 NE10      30.01R                  
PETERSBURG*    DRIZZLE   51  50  97 NE13      29.98S                  
HANOVER        CLOUDY    50  49  96 VRB5      30.03R FOG              
TAPPAHANNOCK*  LGT RAIN  51  51 100 N9        30.03S                  
QUINTON*       CLOUDY    51  51 100 NE7       29.99S FOG              
CHARLOTTSVILLE LGT RAIN  48  46  93 NE15G25   30.04S FOG              
GORDONSVILLE*  CLOUDY    47  46  97 NE9G17    30.05S FOG              
ORANGE*        DRIZZLE   46  45  93 NE10G17   30.06S                  
LOUISA*        CLOUDY    52  48  87 NE8       30.02F                  
BUMPASS*       CLOUDY    47  47 100 NE3       30.04S                  
FARMVILLE*     HVY RAIN  49  49 100 N13G20    29.98F                  
CREWE*         CLOUDY    49  49 100 N3        29.97S                  
FORT PICKETT*  CLOUDY   N/A N/A N/A NE8       29.97S                  
CHASE CITY*    CLOUDY    50  48  94 NE6       29.95S                  
CLARKSVILLE*   CLOUDY    50  50 100 N7        29.94R                  
SOUTH HILL*    CLOUDY    51  51 100 N9        30.00S                  
LAWRENCEVILLE* CLOUDY    52  51  97 N5        29.95S                  
EMPORIA*       DRIZZLE   54  54 100 N5        29.95S                  
$$

VAZ088>098-241300-
SOUTHEAST VIRGINIA
  
CITY           SKY/WX    TMP DP  RH WIND       PRES   REMARKS
NORFOLK        CLOUDY    58  55  90 E14       29.94F FOG              
VIRGINIA BEACH CLOUDY    57  54  89 NE12      29.93F                  
NORFOLK NAVAL  CLOUDY    58  55  90 NE15      29.97S FOG              
WEST POINT*    CLOUDY    53  52  97 NE12      30.01S                  
SALUDA*        CLOUDY    53  52  99 NE8       30.01S                  
NEWPORT NEWS   LGT RAIN  55  54  96 NE12G20   29.97S FOG              
LANGLEY AFB    LGT RAIN  56  56 100 NE15G24   29.96S                  
FORT EUSTIS    NOT AVBL                                               
WILLIAMSBURG*  CLOUDY    55  55 100 CALM      29.97F                  
HR EXEC AP*    CLOUDY    57  54  88 NE10      29.94S                  
FRANKLIN*      DRIZZLE   56  55  94 NE10G17   29.94F                  
US460-WAKEFLD  LGT RAIN  55  55 100 VRB5      29.96S                  
$$

VAZ020-022-025-037-045-241300-
WEST CENTRAL AND SOUTHWEST VIRGINIA
  
CITY           SKY/WX    TMP DP  RH WIND       PRES   REMARKS
STAUNTON*      RAIN      47  46  96 NE6       30.06R                  
WAYNESBORO*    CLOUDY    46  46 100 N7        30.04R                  
HOT SPRINGS VA RAIN      39  37  93 E15G21    29.99R VSB<1/4          
LYNCHBURG      LGT RAIN  48  47  96 NE14      29.99S                  
DANVILLE       RAIN      49  49 100 NE14      29.95R FOG              
SOUTH BOSTON*  CLOUDY    49  48  95 NE7       29.95R                  
MARTINSVILLE   LGT RAIN  48  47  95 N6        29.99R                  
ROANOKE        LGT RAIN  48  47  96 NE7       30.00S                  
BLACKSBURG     LGT RAIN  46  44  93 NE8       29.98S                  
DUBLIN*        LGT RAIN  46  44  91 E7        29.96R                  
MARION*        CLOUDY    46  45  96 E13       29.93S                  
HILLSVILLE*    RAIN      45  45 100 E13       29.89F                  
RICHLANDS*     CLOUDY    48  45  90 E6        29.86S                  
WISE*          FOG       46  46 100 CALM      29.88R VSB<1/4          
ABINGDON*      PTSUNNY   50  46  87 E9        29.85S                  
$$

MDZ021>025-VAZ099-100-241300-
SOUTHERN MARYLAND AND THE DELMARVA PENINSULA
  
CITY           SKY/WX    TMP DP  RH WIND       PRES   REMARKS
PATUXENT RIVER DRIZZLE   52  50  93 NE15      30.05R                  
BAY BRIDGE APT LGT RAIN  50  48  93 N7        30.10R FOG              
LEONARDTOWN    CLOUDY    52  46  82 NE5       30.07R                  
DOVER          CLOUDY    51  51 100 NE10      30.09R                  
GEORGETOWN     CLOUDY    53  47  79 MISG      30.08R                  
EASTON         CLOUDY    54  46  76 NE7       30.12R                  
CAMBRIDGE      CLOUDY    52  46  82 NE7       30.07S                  
SALISBURY      CLOUDY    52  50  93 NE12      30.06R                  
OCEAN CITY     CLOUDY    53  48  83 NE13      30.06R                  
WALLOPS ISLAND LGT RAIN  54  53  97 NE22      30.03S                  
ACCOMACK*      CLOUDY    55  53  94 NE15G28   29.99S                  
$$

NCZ012>017-030>032-241300-
NORTH CENTRAL AND EASTERN NORTH CAROLINA
  
CITY           SKY/WX    TMP DP  RH WIND       PRES   REMARKS
ROANOKE RAPIDS LGT RAIN  54  54 100 NE8       29.92S                  
RALEIGH        LGT RAIN  54  53  97 NE8       29.89S FOG              
ELIZABETH CITY LGT RAIN  62  62 100 NE9       29.92S                  
AHOSKIE*       FOG       56  55  98 NE7       29.92R VSB 1            
EDENTON*       LGT RAIN  63  61  94 CALM      29.92R                  
CURRITUCK*     DRIZZLE   61  61 100 NE6       29.94R                  
KILL DEVIL HLS LGT RAIN  62  62 100 CALM      29.90F                  
MANTEO         DRIZZLE   63  62  97 E6        29.91F                  
CAPE HATTERAS  LGT RAIN  68  66  93 E5        29.88S FOG              
TARBORO*       NOT AVBL                                               
GOLDSBORO      CLOUDY    58  58 100 NE7       29.84S                  
WASHINGTON     HVY RAIN  60  59  97 NE9       29.88S                  
GREENVILLE     HVY RAIN  59  59 100 NE7       29.90S                  
NEW BERN       CLOUDY    63  63 100 E6        29.86S                  
WILMINGTON     LGT RAIN  67  67 100 SE15      29.80S FOG              
$$

VAZ048-241300-
ELSEWHERE
  
CITY           SKY/WX    TMP DP  RH WIND       PRES   REMARKS
HARRISBURG PA  CLOUDY    50  47  89 CALM      30.12S                  
BALTIMORE      CLOUDY    52  49  89 NE9       30.10R                  
ANNAPOLIS      LGT RAIN  54  49  83 NE7       30.10R                  
ANDREWS AFB    DRIZZLE   51  47  88 N12       30.07S                  
PHILADELPHIA   CLOUDY    51  42  71 NE5       30.14R                  
HENDERSON NC   LGT RAIN  49  48  97 NE8       29.92S                  
GREENSBORO     LGT RAIN  49  49 100 NE13      29.90F FOG              
ROCKY MOUNT    RAIN      56  56 100 NE9       29.88F FOG              
$$

VAZ100-241300-
MARINE
  
STATION/POSITION TIME  TEMP    WIND        PRES    WAVE   SWELL
                       AIR SEA DIR/SP/G            HT/PER HT/PER
                 (UTC) (F)     (DEG/KT/KT) (MB)    (FT/S) (FT/S)
CAPE MAY NJ      1148   51 56   60/  7/ 11 1018.3R
LEWES DE         1142   52 55   80/ 16/ 17 1018.2R
15NM E FENWICK I 1150   52 52   50/ 16/ 19 1018.2R   5/11   3/11
OCEAN-CITY-INLET 1142   53 55   70/  9/ 13 1018.1R
WACHAPREAGUE VA  1148   54 58   40/ 24/ 29 1014.9R
THOMAS POINT MD  1200   52 58   30/ 15/ 17   N/A
GOOSES REEF MD   1200   53 53   40/ 14/ 17 1018.5    2/ 2
COVE POINT MD    1148   52      60/ 13/ 17 1018.4R
SOLOMONS ISLAND  1148   53 61   20/  8/ 12   N/A
BISHOPS HEAD MD  1148   52 59   40/ 14/ 17 1017.4S
PINEY POINT MD   1148           50/  7/ 10   N/A
POTOMAC MD       1200   53 61   30/ 16/ 17 1016.3    1/ 3
CAMBRIDGE MD     1148   53 63   60/  8/ 14 1017.5R
LEWISETTA VA     1148   53 62   50/  9/ 13 1016.7S
RAPPAHANNOCK LGT 1148           50/ 18/ 20 1015.8S
STINGRAY PT      1150   55      60/ 19/ 23 1016.1R
YORK RVR RNG VA  1148   57      50/ 21/ 24 1014.1F
YORKTOWN VA      1148   56 63   40/ 11/ 15 1014.8R
JAMESTOWN VA     1200   54 67   40/  8/ 14   N/A     0
DOMINION TERM VA 1148   57      50/ 10/ 17 1014.3S
KIPTOPEKE VA     1148      60   50/ 13/ 19   N/A
CHES BAY BRIDGE  1148   56 60   60/ 26/ 30 1013.4F
CAPE HENRY VA    1148   56      40/ 23/ 28   N/A
WILLOUBY STN VA  1148   57      40/ 15/ 18 1015.7R
S CRANEY ISL VA  1148   58      60/ 19/ 21 1013.9R
CAPE HENRY BUOY  1142      55                N/A     5/ 5   2/12
1ST LANDING BUOY 1200   57 60              1013.9    4/ 4
CAPE CHARLES BUO 1151      57                N/A     6/ 5   2/13
64NM E OF VA BCH 1150   58 53   80/ 12/ 12 1014.1R   5/ 8   5/ 8
DUCK PIER NC     1148   61 62  130/  9/ 11 1012.3F
44100 DUCK FRF   1135      54                N/A     6/13   3/13
44056 DUCK FRF   1130      60                N/A     5/ 8   2/12
OREGON INLET NC  1142   63 58   80/  5/  7 1012.5F
HATTERAS NC      1148   67 67   90/  7/ 13 1011.6S
DIAMOND SHLS NC  1150   77 78  150/ 17/ 21 1011.4S   8/11   7/11
CAPE LOOKOUT NC  1200   72     140/ 13/ 14 1010.0S
$$
  

Return to Home page


Western Regional Climate Center, wrcc@dri.edu